Regional Weather Roundup
Issued by NWS

Home | Current Version | Previous Version | Graphics & Text | Print | Product List | Glossary On
Versions: 1 2 3 4 5 6 7 8 9 10 11 12 13 14 15 16 17 18 19 20 21 22 23 24 25 26 27 28 29 30 31 32 33 34 35 36 37 38 39 40 41 42 43 44 45 46 47 48 49 50
000
ASUS45 KABQ 292310
RWRNM
NEW MEXICO REGIONAL WEATHER ROUNDUP
NATIONAL WEATHER SERVICE ALBUQUERQUE NM
500 PM MDT MON JUN 29 2015

NOTE: "FAIR" MEANS FEW OR NO CLOUDS BELOW 12,000 FEET AGL WITH NO
       SIGNIFICANT WEATHER OR OBSTRUCTIONS TO VISION.

      THIS PRODUCT IS RELEASED AS TWO VERSIONS.  ONE VERSION NEAR
      THE TOP OF THE HOUR CONTAINING PRELIMINARY DATA FROM ALBUQUERQUE
      AND OTHER STATIONS.  A FINAL VERSION WITH ADDITIONAL DATA IS
      ISSUED ABOUT 10 MINUTES AFTER THE HOUR.

NMZ501-503-504-510>518-300000-
NORTHWEST PLATEAU/NORTHCENTRAL MOUNTAINS

CITY           SKY/WX    TMP DP  RH WIND       PRES   REMARKS
FARMINGTON     MOSUNNY   89  42  19 W3        30.10S
LOS ALAMOS     PTSUNNY   82  39  22 SE8       30.29F
SANTA FE       CLOUDY    76  48  37 E12       30.22R
TAOS           PTSUNNY   81  46  30 SE22G29   30.30F
ANGEL FIRE     FAIR      65  50  58 CALM      30.43F

$$
NMZ402-403-502-505>509-300000-
WESTCENTRAL MOUNTAINS/SOUTHWEST MOUNTAINS

CITY           SKY/WX    TMP DP  RH WIND       PRES   REMARKS
GALLUP         PTSUNNY   88  45  22 W15       30.19F
GRANTS         PTSUNNY   90  37  15 SE6       30.20F
SILVER CITY      N/A     82  48  30 NW15      30.16S

$$
NMZ407-409-411-412-300000-
SOUTHERN DESERTS

CITY           SKY/WX    TMP DP  RH WIND       PRES   REMARKS
LORDSBURG      FAIR      97  41  14 SE7       30.02F
DEMING         MOSUNNY   96  43  16 CALM      30.03F
LAS CRUCES     PTSUNNY   96  42  15 E9G16     30.06F
HOLLOMAN AFB   PTSUNNY   86  51  29 E13       30.03F
ALAMOGORDO     PTSUNNY   84  48  28 E20       30.05F
T OR C         MOSUNNY   94  44  17 SE12G20   30.07F

$$
NMZ519>523-300000-
CENTRAL VALLEYS/CENTRAL HIGHLANDS

CITY           SKY/WX    TMP DP  RH WIND       PRES   REMARKS
ALBUQUERQUE    PTSUNNY   92  42  17 N13       30.12F
DOUBLE EAGLE   PTSUNNY   90  45  20 VRB6      30.17F
MORIARTY ARPT    N/A     83  43  24 SE8       30.20F
CLINES CORNERS CLOUDY    75  50  41 E7        30.27F
BELEN          FAIR      93  37  13 E8        30.09F
SOCORRO        FAIR      95  40  14 SE5       30.07F

$$
NMZ524>526-539-540-300000-
SOUTHCENTRAL MOUNTAINS

CITY           SKY/WX    TMP DP  RH WIND       PRES   REMARKS
RUIDOSO        PTSUNNY   75  52  43 SW13      30.29S

$$
NMZ527>531-300000-
NORTHEAST HIGHLANDS/NORTHEAST PLAINS

CITY           SKY/WX    TMP DP  RH WIND       PRES   REMARKS
LAS VEGAS      CLOUDY    64  56  75 SE9       30.31F
RATON          PTSUNNY   77  52  41 SE12      30.26S
CLAYTON        MOSUNNY   79  54  41 SE13      30.21F

$$
NMZ532>537-300000-
EASTCENTRAL PLAINS

CITY           SKY/WX    TMP DP  RH WIND       PRES   REMARKS
TUCUMCARI      PTSUNNY   89  43  20 NE12      30.10R
CANNON AFB     MOSUNNY   85  54  34 E16G22    30.09F
CLOVIS AIRPORT PTSUNNY   84  55  37 NE10      30.10

$$
NMZ028-029-538-300000-
SOUTHEAST PLAINS

CITY           SKY/WX    TMP DP  RH WIND       PRES   REMARKS
ROSWELL        PTSUNNY   95  48  20 N3        29.98F
ARTESIA        MOSUNNY   95  50  21 VRB6G12   29.97F
CARLSBAD       SUNNY     95  52  23 S9        29.95F
HOBBS          MOSUNNY   91  50  24 SE9       30.02F


$$


USA.gov is the U.S. government's official web portal to all federal, state and local government web resources and services.